ARG1304 KMCI-SACO

Flight info

Callsign ARG1304
Flight time N/A
Altitude 35000
Route VIA ICT DCT KOKC DCT KDFW DCT KSAT DCT KCRP DCT MMMX DCT MMBT DCT MSLP DCT MROC DCT SEGU DCT SPJC DCT SCFA DCT SASJ DCT SASA DCT SANT DCT SANE RNAV1
Aircraft A332/H-SDE3GHIJ2J3J5M1RVWXY/LB2D1

Departure

Time 2026-05-01 10:06
Airport Kansas City International Airport (KMCI)

Arrival

Time N/A
Airport Ingeniero Aeronáutico Ambrosio L.V. Taravella International Airport (SACO)
Time Latitude Longitude Altitude Speed Heading
2026-05-01 09:46 39.29320 -94.71751 1020 ft 0 kts 319°
2026-05-01 09:55 39.29314 -94.71745 1024 ft 3 kts 319°
2026-05-01 09:55 39.29299 -94.71728 1019 ft 3 kts 321°
2026-05-01 09:56 39.29283 -94.71712 1024 ft 3 kts 323°
2026-05-01 09:56 39.29266 -94.71697 1024 ft 3 kts 324°
2026-05-01 09:56 39.29252 -94.71682 1024 ft 2 kts 307°
2026-05-01 09:56 39.29247 -94.71671 1023 ft 1 kts 290°
2026-05-01 09:57 39.29245 -94.71661 1023 ft 1 kts 283°
2026-05-01 09:57 39.29245 -94.71660 1024 ft 0 kts 283°
2026-05-01 09:58 39.29252 -94.71717 1019 ft 14 kts 273°
2026-05-01 09:59 39.29263 -94.71891 1022 ft 22 kts 279°
2026-05-01 09:59 39.29280 -94.72082 1027 ft 22 kts 277°
2026-05-01 09:59 39.29283 -94.72277 1028 ft 21 kts 255°
2026-05-01 09:59 39.29279 -94.72466 1029 ft 21 kts 277°
2026-05-01 10:00 39.29306 -94.72640 1028 ft 14 kts 305°
2026-05-01 10:00 39.29362 -94.72648 1029 ft 11 kts 14°
2026-05-01 10:00 39.29472 -94.72615 1029 ft 21 kts 13°
2026-05-01 10:00 39.29637 -94.72563 1025 ft 28 kts 13°
2026-05-01 10:01 39.29843 -94.72505 1022 ft 32 kts 12°
2026-05-01 10:01 39.30057 -94.72442 1022 ft 31 kts 13°
2026-05-01 10:01 39.30270 -94.72379 1019 ft 31 kts 13°
2026-05-01 10:01 39.30481 -94.72317 1016 ft 31 kts 13°
2026-05-01 10:02 39.30693 -94.72256 1014 ft 31 kts 12°
2026-05-01 10:02 39.30903 -94.72194 1011 ft 31 kts 14°
2026-05-01 10:02 39.31111 -94.72131 1009 ft 31 kts 12°
2026-05-01 10:02 39.31320 -94.72070 1006 ft 31 kts 11°
2026-05-01 10:03 39.31524 -94.72011 1006 ft 30 kts 14°
2026-05-01 10:03 39.31728 -94.71946 1004 ft 30 kts 12°
2026-05-01 10:03 39.31934 -94.71886 1001 ft 30 kts 13°
2026-05-01 10:03 39.32124 -94.71830 1000 ft 10 kts
2026-05-01 10:04 39.32171 -94.71870 999 ft 9 kts 296°
2026-05-01 10:04 39.32196 -94.71958 1002 ft 12 kts 282°
2026-05-01 10:04 39.32210 -94.72070 999 ft 6 kts 256°
2026-05-01 10:04 39.32192 -94.72084 1001 ft 5 kts 195°
2026-05-01 10:05 39.32086 -94.72122 1003 ft 36 kts 196°
2026-05-01 10:05 39.31645 -94.72249 1007 ft 94 kts 193°
2026-05-01 10:05 39.30822 -94.72491 1012 ft 147 kts 193°
2026-05-01 10:05 39.29689 -94.72857 1262 ft 180 kts 197°
2026-05-01 10:06 39.28627 -94.73834 1731 ft 204 kts 238°
2026-05-01 10:06 39.28187 -94.75700 2127 ft 235 kts 263°
2026-05-01 10:06 39.27961 -94.77937 2374 ft 261 kts 265°
2026-05-01 10:06 39.27740 -94.80332 2617 ft 277 kts 265°
2026-05-01 10:07 39.27492 -94.82876 2861 ft 293 kts 264°
2026-05-01 10:07 39.27215 -94.85549 3109 ft 309 kts 264°
2026-05-01 10:07 39.26918 -94.88326 3346 ft 323 kts 264°
2026-05-01 10:07 39.26598 -94.91249 3744 ft 332 kts 264°
2026-05-01 10:08 39.25939 -94.97196 4839 ft 338 kts 264°
2026-05-01 10:08 39.25602 -95.00215 5358 ft 340 kts 264°
2026-05-01 10:08 39.25263 -95.03246 5918 ft 340 kts 264°
2026-05-01 10:09 39.24925 -95.06262 6478 ft 341 kts 264°
2026-05-01 10:09 39.24589 -95.09258 7000 ft 342 kts 264°
2026-05-01 10:09 39.24247 -95.12296 7507 ft 344 kts 264°
2026-05-01 10:09 39.23905 -95.15324 8022 ft 330 kts 264°
2026-05-01 10:10 39.23581 -95.18142 8567 ft 312 kts 265°
2026-05-01 10:10 39.23268 -95.20898 9103 ft 311 kts 265°
2026-05-01 10:10 39.22640 -95.26463 10164 ft 315 kts 265°
2026-05-01 10:11 39.22322 -95.29265 10662 ft 316 kts 265°
2026-05-01 10:11 39.22001 -95.32071 11163 ft 316 kts 265°
2026-05-01 10:11 39.21680 -95.34874 11651 ft 317 kts 265°
2026-05-01 10:11 39.21361 -95.37655 12160 ft 317 kts 265°
2026-05-01 10:12 39.21037 -95.40469 12674 ft 318 kts 265°
2026-05-01 10:12 39.20817 -95.42378 13031 ft 319 kts 265°
2026-05-01 10:12 39.20054 -95.48977 14248 ft 321 kts 265°
2026-05-01 10:13 39.19723 -95.51834 14737 ft 322 kts 265°
2026-05-01 10:13 39.19390 -95.54694 15212 ft 323 kts 265°
2026-05-01 10:13 39.19055 -95.57563 15726 ft 324 kts 265°
2026-05-01 10:14 39.18379 -95.63343 16768 ft 327 kts 264°
2026-05-01 10:14 39.18041 -95.66224 17272 ft 328 kts 264°
2026-05-01 10:14 39.17698 -95.69139 17811 ft 329 kts 264°
2026-05-01 10:14 39.17353 -95.72064 18342 ft 330 kts 264°
2026-05-01 10:15 39.17012 -95.74945 18821 ft 330 kts 264°
2026-05-01 10:15 39.16666 -95.77875 19304 ft 330 kts 264°
2026-05-01 10:15 39.16318 -95.80803 19793 ft 330 kts 264°
2026-05-01 10:15 39.15971 -95.83717 20301 ft 329 kts 264°
2026-05-01 10:16 39.15624 -95.86633 20797 ft 328 kts 264°
2026-05-01 10:16 39.15377 -95.88551 21140 ft 328 kts 263°
2026-05-01 10:16 39.13540 -95.95003 22376 ft 333 kts 245°
2026-05-01 10:17 39.12676 -95.96660 22723 ft 336 kts 240°
2026-05-01 10:17 39.08811 -96.01735 23657 ft 348 kts 231°
2026-05-01 10:17 39.07602 -96.03168 23826 ft 351 kts 231°
2026-05-01 10:18 39.03965 -96.07485 24303 ft 359 kts 231°
2026-05-01 10:18 39.02151 -96.09645 24509 ft 362 kts 231°
2026-05-01 10:18 39.00296 -96.11857 24757 ft 366 kts 231°
2026-05-01 10:19 38.98418 -96.14096 25001 ft 369 kts 231°
2026-05-01 10:19 38.96523 -96.16355 25235 ft 372 kts 231°
2026-05-01 10:19 38.94614 -96.18628 25438 ft 374 kts 231°
2026-05-01 10:20 38.90807 -96.23154 25930 ft 372 kts 231°
2026-05-01 10:20 38.88906 -96.25414 26179 ft 372 kts 231°
2026-05-01 10:20 38.87035 -96.27636 26425 ft 372 kts 231°
2026-05-01 10:20 38.85112 -96.29921 26686 ft 372 kts 231°
2026-05-01 10:21 38.83224 -96.32161 26936 ft 373 kts 231°
2026-05-01 10:21 38.79401 -96.36692 27452 ft 374 kts 231°
2026-05-01 10:21 38.77492 -96.38953 27720 ft 374 kts 231°
2026-05-01 10:22 38.73661 -96.43483 28248 ft 375 kts 231°
2026-05-01 10:22 38.69838 -96.47997 28723 ft 377 kts 230°
2026-05-01 10:23 38.67911 -96.50270 29002 ft 378 kts 230°
2026-05-01 10:23 38.64028 -96.54844 29557 ft 379 kts 230°
2026-05-01 10:23 38.62087 -96.57128 29826 ft 380 kts 230°
2026-05-01 10:24 38.58187 -96.61712 30382 ft 381 kts 230°
2026-05-01 10:24 38.54275 -96.66302 30853 ft 381 kts 230°
2026-05-01 10:25 38.50381 -96.70862 31335 ft 379 kts 230°
2026-05-01 10:25 38.46503 -96.75397 31827 ft 376 kts 230°
2026-05-01 10:26 38.44597 -96.77624 32048 ft 375 kts 230°
2026-05-01 10:26 38.42674 -96.79870 32287 ft 374 kts 230°
2026-05-01 10:26 38.38838 -96.84345 32782 ft 372 kts 230°
2026-05-01 10:27 38.35019 -96.88792 33298 ft 370 kts 229°
2026-05-01 10:27 38.31235 -96.93192 33843 ft 366 kts 229°
2026-05-01 10:28 38.29379 -96.95347 34105 ft 364 kts 229°
2026-05-01 10:28 38.25639 -96.99686 34580 ft 359 kts 229°
2026-05-01 10:28 38.23819 -97.01794 34813 ft 356 kts 230°
2026-05-01 10:29 38.20176 -97.06014 35166 ft 354 kts 230°
2026-05-01 10:29 38.18345 -97.08135 35176 ft 357 kts 230°
2026-05-01 10:30 38.10853 -97.16794 35183 ft 371 kts 229°
2026-05-01 10:31 38.03054 -97.25772 35183 ft 386 kts 229°
2026-05-01 10:32 37.97004 -97.32718 35182 ft 397 kts 229°
2026-05-01 10:33 37.88709 -97.42214 35169 ft 410 kts 229°
2026-05-01 10:34 37.82294 -97.49536 35174 ft 415 kts 229°
2026-05-01 10:34 37.77918 -97.54296 35163 ft 420 kts 223°
2026-05-01 10:35 37.72582 -97.57616 35160 ft 442 kts 205°
2026-05-01 10:35 37.69552 -97.58357 35137 ft 456 kts 196°
2026-05-01 10:35 37.63135 -97.58657 35157 ft 463 kts 191°
2026-05-01 10:36 37.53503 -97.58596 35157 ft 464 kts 191°
2026-05-01 10:37 37.47042 -97.58589 35114 ft 463 kts 192°
2026-05-01 10:37 37.37399 -97.58646 35152 ft 460 kts 192°
2026-05-01 10:38 37.30995 -97.58698 35152 ft 460 kts 192°
2026-05-01 10:38 37.24627 -97.58749 35149 ft 460 kts 192°
2026-05-01 10:39 37.18208 -97.58796 35149 ft 459 kts 193°
2026-05-01 10:39 37.11819 -97.58842 35143 ft 458 kts 193°
2026-05-01 10:40 37.05470 -97.58889 35142 ft 458 kts 193°
2026-05-01 10:40 36.99089 -97.58936 35104 ft 458 kts 193°
2026-05-01 10:41 36.92741 -97.58977 35136 ft 455 kts 193°
2026-05-01 10:42 36.83309 -97.59047 35134 ft 453 kts 193°
2026-05-01 10:42 36.77702 -97.59089 35129 ft 453 kts 193°
2026-05-01 10:43 36.71408 -97.59134 35123 ft 451 kts 194°
2026-05-01 10:43 36.65137 -97.59178 35122 ft 450 kts 194°
2026-05-01 10:44 36.58886 -97.59224 35128 ft 449 kts 194°
2026-05-01 10:44 36.52635 -97.59272 35140 ft 449 kts 194°
2026-05-01 10:45 36.46393 -97.59316 35138 ft 448 kts 194°
2026-05-01 10:45 36.40160 -97.59359 35141 ft 447 kts 194°
2026-05-01 10:46 36.33974 -97.59404 35138 ft 447 kts 194°
2026-05-01 10:46 36.27750 -97.59450 35140 ft 446 kts 198°
2026-05-01 10:47 36.21597 -97.59608 35130 ft 442 kts 193°
2026-05-01 10:47 36.15437 -97.59605 35129 ft 442 kts 192°
2026-05-01 10:48 36.09288 -97.59596 35125 ft 441 kts 192°
2026-05-01 10:48 36.03159 -97.59622 35121 ft 440 kts 193°
2026-05-01 10:49 35.97067 -97.59665 35118 ft 440 kts 193°
2026-05-01 10:49 35.90950 -97.59711 35119 ft 439 kts 193°
2026-05-01 10:50 35.84836 -97.59756 35130 ft 439 kts 193°
2026-05-01 10:50 35.78720 -97.59800 35130 ft 439 kts 193°
2026-05-01 10:51 35.72613 -97.59843 35137 ft 439 kts 193°
2026-05-01 10:51 35.66499 -97.59886 35138 ft 439 kts 193°
2026-05-01 10:52 35.60389 -97.59929 35121 ft 439 kts 193°
2026-05-01 10:52 35.54316 -97.59972 35120 ft 439 kts 193°
2026-05-01 10:53 35.48210 -97.60014 35118 ft 438 kts 193°
2026-05-01 10:53 35.42122 -97.60052 35121 ft 438 kts 192°
2026-05-01 10:54 35.35937 -97.59293 35123 ft 453 kts 184°
2026-05-01 10:54 35.29703 -97.57925 35112 ft 456 kts 183°
2026-05-01 10:55 35.23481 -97.56441 35103 ft 454 kts 182°
2026-05-01 10:55 35.17284 -97.54972 35108 ft 453 kts 183°
2026-05-01 10:56 35.11110 -97.53536 35091 ft 451 kts 183°
2026-05-01 10:56 35.04939 -97.52115 35092 ft 451 kts 183°
2026-05-01 10:57 34.98770 -97.50696 35088 ft 450 kts 183°
2026-05-01 10:57 34.92664 -97.49291 35098 ft 449 kts 183°
2026-05-01 10:58 34.86528 -97.47882 35108 ft 448 kts 183°
2026-05-01 10:58 34.80405 -97.46479 35116 ft 448 kts 183°
2026-05-01 10:59 34.74283 -97.45076 35099 ft 445 kts 182°
2026-05-01 10:59 34.68203 -97.43681 35124 ft 443 kts 182°
2026-05-01 11:00 34.62151 -97.42301 35121 ft 442 kts 182°
2026-05-01 11:00 34.56101 -97.40921 35115 ft 441 kts 183°
2026-05-01 11:01 34.50096 -97.39557 35080 ft 441 kts 182°
2026-05-01 11:01 34.44076 -97.38189 35078 ft 439 kts 182°
2026-05-01 11:02 34.38068 -97.36826 35081 ft 439 kts 182°
2026-05-01 11:02 34.32064 -97.35467 35083 ft 439 kts 182°
2026-05-01 11:03 34.26100 -97.34118 35084 ft 439 kts 182°
2026-05-01 11:03 34.20099 -97.32762 35081 ft 438 kts 182°
2026-05-01 11:04 34.14121 -97.31412 35078 ft 438 kts 182°
2026-05-01 11:04 34.08133 -97.30063 35074 ft 437 kts 182°
2026-05-01 11:05 34.03157 -97.28944 35070 ft 437 kts 182°
2026-05-01 11:05 33.97173 -97.27599 35061 ft 437 kts 182°
2026-05-01 11:06 33.90203 -97.26037 35072 ft 438 kts 182°
2026-05-01 11:06 33.85188 -97.24912 35066 ft 438 kts 182°
2026-05-01 11:07 33.76194 -97.22900 35070 ft 438 kts 182°
2026-05-01 11:07 33.70247 -97.21571 35106 ft 437 kts 182°
2026-05-01 11:08 33.64267 -97.20236 35110 ft 436 kts 182°
2026-05-01 11:09 33.58333 -97.18916 35110 ft 436 kts 182°
2026-05-01 11:09 33.57951 -97.18830 35110 ft 436 kts 182°
2026-05-01 11:10 33.49574 -97.16970 35099 ft 435 kts 182°
2026-05-01 11:10 33.43617 -97.15648 35094 ft 434 kts 181°
2026-05-01 11:11 33.37678 -97.14330 35056 ft 434 kts 181°
2026-05-01 11:11 33.31749 -97.13019 35063 ft 433 kts 181°
2026-05-01 11:12 33.25813 -97.11708 35068 ft 433 kts 181°
2026-05-01 11:12 33.19882 -97.10399 35065 ft 433 kts 181°
2026-05-01 11:13 33.13944 -97.09091 35064 ft 433 kts 181°
2026-05-01 11:13 33.08020 -97.07787 35066 ft 433 kts 181°
2026-05-01 11:14 33.02086 -97.06483 35055 ft 433 kts 181°
2026-05-01 11:14 32.96185 -97.05189 35055 ft 433 kts 182°
2026-05-01 11:15 32.93240 -97.04740 35046 ft 422 kts 187°
2026-05-01 11:15 32.90338 -97.04701 35053 ft 411 kts 194°
2026-05-01 11:15 32.87539 -97.05099 35055 ft 401 kts 200°
2026-05-01 11:16 32.87309 -97.05152 35053 ft 400 kts 201°
2026-05-01 11:16 32.82059 -97.07050 35056 ft 392 kts 207°
2026-05-01 11:17 32.76959 -97.09313 35072 ft 391 kts 208°
2026-05-01 11:17 32.71852 -97.11626 35054 ft 391 kts 208°
2026-05-01 11:18 32.66747 -97.13901 35040 ft 392 kts 207°
2026-05-01 11:18 32.61637 -97.16154 35055 ft 395 kts 207°
2026-05-01 11:19 32.56440 -97.18433 35062 ft 396 kts 207°
2026-05-01 11:19 32.51300 -97.20684 35063 ft 396 kts 207°
2026-05-01 11:20 32.46134 -97.22946 35061 ft 396 kts 207°
2026-05-01 11:20 32.40995 -97.25194 35014 ft 395 kts 207°
2026-05-01 11:21 32.35804 -97.27465 35007 ft 401 kts 206°
2026-05-01 11:21 32.30538 -97.29766 35034 ft 404 kts 206°
2026-05-01 11:22 32.25259 -97.32063 35035 ft 403 kts 206°
2026-05-01 11:22 32.19984 -97.34357 35035 ft 403 kts 206°
2026-05-01 11:23 32.14753 -97.36631 35034 ft 403 kts 206°
2026-05-01 11:23 32.09477 -97.38923 35033 ft 406 kts 206°
2026-05-01 11:24 32.04124 -97.41250 35031 ft 412 kts 206°
2026-05-01 11:25 31.96039 -97.44748 35030 ft 412 kts 206°
2026-05-01 11:25 31.88010 -97.48215 35029 ft 411 kts 206°
2026-05-01 11:26 31.79911 -97.51711 35029 ft 417 kts 205°
2026-05-01 11:27 31.74431 -97.54074 35026 ft 420 kts 205°
2026-05-01 11:27 31.68939 -97.56434 35024 ft 419 kts 205°
2026-05-01 11:28 31.63498 -97.58770 35030 ft 419 kts 204°
2026-05-01 11:28 31.58057 -97.61103 35020 ft 415 kts 204°
2026-05-01 11:29 31.49863 -97.64617 35026 ft 423 kts 203°
2026-05-01 11:30 31.41519 -97.68186 35034 ft 425 kts 203°
2026-05-01 11:30 31.35962 -97.70556 35033 ft 425 kts 203°
2026-05-01 11:31 31.30407 -97.72925 35031 ft 425 kts 203°
2026-05-01 11:31 31.24839 -97.75297 35005 ft 428 kts 203°
2026-05-01 11:32 31.19212 -97.77694 34995 ft 436 kts 203°
2026-05-01 11:32 31.13475 -97.80131 35027 ft 439 kts 203°
2026-05-01 11:33 31.07735 -97.82563 35028 ft 438 kts 203°
2026-05-01 11:33 31.02029 -97.84980 35024 ft 438 kts 203°
2026-05-01 11:34 30.96275 -97.87416 35017 ft 441 kts 204°
2026-05-01 11:34 30.90449 -97.89882 34981 ft 449 kts 204°
2026-05-01 11:35 30.84557 -97.92368 34987 ft 450 kts 204°
2026-05-01 11:35 30.78698 -97.94834 34977 ft 450 kts 204°
2026-05-01 11:36 30.72815 -97.97310 34992 ft 448 kts 204°
2026-05-01 11:36 30.66948 -97.99773 34985 ft 449 kts 205°
2026-05-01 11:37 30.61064 -98.02246 34999 ft 450 kts 205°
2026-05-01 11:37 30.55175 -98.04716 34990 ft 450 kts 205°
2026-05-01 11:38 30.49288 -98.07182 35000 ft 450 kts 205°
2026-05-01 11:38 30.43400 -98.09645 34996 ft 450 kts 205°
2026-05-01 11:39 30.37550 -98.12088 34989 ft 450 kts 205°
2026-05-01 11:39 30.31661 -98.14545 34973 ft 450 kts 205°
2026-05-01 11:40 30.25763 -98.17003 34981 ft 450 kts 205°
2026-05-01 11:40 30.19874 -98.19453 34962 ft 450 kts 205°
2026-05-01 11:41 30.13985 -98.21900 34923 ft 449 kts 205°
2026-05-01 11:41 30.08077 -98.24353 34953 ft 451 kts 205°
2026-05-01 11:42 30.02216 -98.26783 34956 ft 451 kts 205°
2026-05-01 11:42 29.96298 -98.29232 34953 ft 451 kts 205°
2026-05-01 11:43 29.90407 -98.31668 34949 ft 451 kts 205°
2026-05-01 11:43 29.84498 -98.34108 34926 ft 451 kts 205°
2026-05-01 11:44 29.75678 -98.37745 34931 ft 449 kts 205°
2026-05-01 11:44 29.69791 -98.40169 34930 ft 449 kts 205°
2026-05-01 11:45 29.63904 -98.42589 34919 ft 449 kts 205°
2026-05-01 11:45 29.57857 -98.44566 34924 ft 457 kts 194°
2026-05-01 11:46 29.51412 -98.44648 34901 ft 475 kts 178°
2026-05-01 11:46 29.48146 -98.43777 34928 ft 488 kts 168°
2026-05-01 11:46 29.45001 -98.42344 34923 ft 495 kts 163°
2026-05-01 11:47 29.38752 -98.38925 34918 ft 499 kts 160°
2026-05-01 11:47 29.32545 -98.35354 34921 ft 499 kts 160°
2026-05-01 11:48 29.26315 -98.31821 34905 ft 501 kts 161°
2026-05-01 11:48 29.19996 -98.28302 34906 ft 508 kts 161°
2026-05-01 11:49 29.13616 -98.24766 34903 ft 509 kts 161°
2026-05-01 11:49 29.07285 -98.21258 34914 ft 508 kts 161°
2026-05-01 11:50 29.00914 -98.17734 34890 ft 508 kts 161°
2026-05-01 11:50 28.94542 -98.14215 34885 ft 511 kts 161°
2026-05-01 11:51 28.89193 -98.11266 34886 ft 512 kts 161°
2026-05-01 11:51 28.82779 -98.07730 34882 ft 513 kts 161°
2026-05-01 11:52 28.76355 -98.04194 34870 ft 512 kts 161°
2026-05-01 11:52 28.69931 -98.00664 34859 ft 513 kts 162°
2026-05-01 11:53 28.63481 -97.97127 34869 ft 515 kts 162°
2026-05-01 11:53 28.57012 -97.93582 34873 ft 516 kts 162°
2026-05-01 11:54 28.50574 -97.90057 34879 ft 516 kts 162°
2026-05-01 11:54 28.44103 -97.86520 34886 ft 516 kts 162°
2026-05-01 11:55 28.37614 -97.82979 34888 ft 517 kts 162°
2026-05-01 11:55 28.31136 -97.79449 34887 ft 517 kts 162°
2026-05-01 11:56 28.24645 -97.75916 34892 ft 517 kts 162°
2026-05-01 11:56 28.18153 -97.72387 34881 ft 517 kts 162°
2026-05-01 11:57 28.11659 -97.68862 34852 ft 517 kts 162°
2026-05-01 11:57 28.05202 -97.65361 34850 ft 517 kts 162°
2026-05-01 11:58 27.98715 -97.61849 34853 ft 517 kts 162°
2026-05-01 11:59 27.88973 -97.56586 34847 ft 517 kts 162°
2026-05-01 11:59 27.82466 -97.53137 34849 ft 512 kts 166°
2026-05-01 12:00 27.75707 -97.51292 34848 ft 490 kts 184°
2026-05-01 12:00 27.72348 -97.51329 34850 ft 478 kts 194°
2026-05-01 12:01 27.62579 -97.53061 34849 ft 474 kts 198°
2026-05-01 12:01 27.56099 -97.54443 34841 ft 474 kts 198°
2026-05-01 12:02 27.49608 -97.55792 34833 ft 474 kts 198°
2026-05-01 12:02 27.43108 -97.57106 34842 ft 474 kts 198°
2026-05-01 12:03 27.36605 -97.58407 34833 ft 474 kts 198°
2026-05-01 12:03 27.30152 -97.59694 34819 ft 473 kts 198°
2026-05-01 12:04 27.23677 -97.60987 34812 ft 472 kts 198°
2026-05-01 12:04 27.17189 -97.62285 34817 ft 474 kts 198°
2026-05-01 12:05 27.10689 -97.63582 34816 ft 474 kts 198°
2026-05-01 12:05 27.00935 -97.65523 34812 ft 474 kts 198°
2026-05-01 12:06 26.94480 -97.66806 34807 ft 474 kts 198°
2026-05-01 12:06 26.87938 -97.68108 34819 ft 478 kts 198°
2026-05-01 12:07 26.81380 -97.69409 34814 ft 478 kts 198°
2026-05-01 12:07 26.74822 -97.70707 34814 ft 478 kts 198°
2026-05-01 12:08 26.68265 -97.72003 34816 ft 478 kts 198°
2026-05-01 12:08 26.61735 -97.73295 34816 ft 481 kts 198°
2026-05-01 12:09 26.55112 -97.74607 34815 ft 484 kts 198°
2026-05-01 12:09 26.48470 -97.75915 34822 ft 484 kts 197°
2026-05-01 12:10 26.38504 -97.77875 34826 ft 484 kts 197°
2026-05-01 12:11 26.28571 -97.79827 34829 ft 484 kts 197°
2026-05-01 12:11 26.21933 -97.81130 34829 ft 484 kts 197°
2026-05-01 12:12 26.15294 -97.82432 34829 ft 484 kts 197°
2026-05-01 12:12 26.08654 -97.83732 34830 ft 484 kts 197°
2026-05-01 12:13 26.02013 -97.85031 34818 ft 484 kts 198°
2026-05-01 12:13 25.95368 -97.86330 34815 ft 485 kts 198°
2026-05-01 12:14 25.88756 -97.87620 34819 ft 484 kts 198°
2026-05-01 12:14 25.82112 -97.88915 34815 ft 484 kts 198°
2026-05-01 12:15 25.75458 -97.90211 34814 ft 484 kts 198°
2026-05-01 12:15 25.68858 -97.91495 34812 ft 485 kts 197°
2026-05-01 12:16 25.62210 -97.92787 34809 ft 485 kts 197°
2026-05-01 12:16 25.55562 -97.94077 34811 ft 485 kts 197°
2026-05-01 12:17 25.48903 -97.95367 34806 ft 485 kts 197°
2026-05-01 12:17 25.42255 -97.96655 34778 ft 485 kts 197°
2026-05-01 12:18 25.35600 -97.97943 34804 ft 486 kts 197°
2026-05-01 12:18 25.28978 -97.99222 34802 ft 486 kts 197°
2026-05-01 12:19 25.22309 -98.00508 34802 ft 486 kts 197°
2026-05-01 12:19 25.15630 -98.01795 34800 ft 486 kts 197°
2026-05-01 12:20 25.08963 -98.03079 34794 ft 486 kts 197°
2026-05-01 12:20 25.02291 -98.04363 34798 ft 487 kts 197°
2026-05-01 12:21 24.95659 -98.05637 34799 ft 487 kts 197°
2026-05-01 12:21 24.88983 -98.06918 34799 ft 487 kts 197°
2026-05-01 12:22 24.82296 -98.08200 34799 ft 487 kts 197°
2026-05-01 12:22 24.75621 -98.09478 34796 ft 486 kts 196°
2026-05-01 12:23 24.68994 -98.10746 34798 ft 486 kts 196°
2026-05-01 12:23 24.62323 -98.12021 34799 ft 486 kts 196°
2026-05-01 12:24 24.55618 -98.13301 34799 ft 486 kts 196°
2026-05-01 12:24 24.48991 -98.14564 34799 ft 486 kts 196°
2026-05-01 12:25 24.38978 -98.16471 34796 ft 486 kts 196°
2026-05-01 12:26 24.32306 -98.17739 34795 ft 486 kts 196°
2026-05-01 12:26 24.22293 -98.19641 34796 ft 486 kts 196°
2026-05-01 12:27 24.12280 -98.21540 34792 ft 487 kts 196°
2026-05-01 12:28 24.02314 -98.23427 34794 ft 487 kts 195°
2026-05-01 12:29 23.92291 -98.25320 34792 ft 487 kts 195°
2026-05-01 12:29 23.82278 -98.27210 34794 ft 487 kts 195°
2026-05-01 12:30 23.72213 -98.29107 34793 ft 489 kts 195°
2026-05-01 12:31 23.65551 -98.30360 34791 ft 489 kts 195°
2026-05-01 12:31 23.58845 -98.31620 34796 ft 489 kts 195°
2026-05-01 12:32 23.52140 -98.32879 34787 ft 489 kts 195°
2026-05-01 12:32 23.42078 -98.34767 34805 ft 489 kts 195°
2026-05-01 12:33 23.35369 -98.36022 34808 ft 488 kts 195°
2026-05-01 12:33 23.28669 -98.37275 34808 ft 488 kts 195°
2026-05-01 12:34 23.22015 -98.38520 34816 ft 488 kts 195°
2026-05-01 12:34 23.15299 -98.39775 34816 ft 490 kts 194°
2026-05-01 12:35 23.08571 -98.41031 34813 ft 491 kts 194°
2026-05-01 12:35 23.01839 -98.42284 34811 ft 491 kts 194°
2026-05-01 12:36 22.95107 -98.43536 34803 ft 491 kts 194°
2026-05-01 12:36 22.88420 -98.44780 34804 ft 490 kts 194°
2026-05-01 12:37 22.81675 -98.46034 34800 ft 493 kts 194°
2026-05-01 12:37 22.74887 -98.47294 34796 ft 494 kts 194°
2026-05-01 12:38 22.69257 -98.48338 34781 ft 494 kts 194°
2026-05-01 12:38 22.61371 -98.49798 34787 ft 494 kts 194°
2026-05-01 12:39 22.55686 -98.50850 34779 ft 494 kts 194°
2026-05-01 12:39 22.48923 -98.52099 34782 ft 495 kts 194°
2026-05-01 12:40 22.42142 -98.53352 34784 ft 495 kts 194°
2026-05-01 12:40 22.35349 -98.54606 34784 ft 495 kts 194°
2026-05-01 12:41 22.28534 -98.55862 34787 ft 495 kts 194°
2026-05-01 12:41 22.21797 -98.57102 34774 ft 495 kts 193°
2026-05-01 12:42 22.14997 -98.58354 34785 ft 496 kts 193°
2026-05-01 12:42 22.08178 -98.59607 34789 ft 496 kts 193°
2026-05-01 12:43 22.01370 -98.60857 34782 ft 496 kts 193°
2026-05-01 12:43 21.94563 -98.62105 34787 ft 496 kts 193°
2026-05-01 12:44 21.87790 -98.63347 34782 ft 496 kts 193°
2026-05-01 12:45 21.74150 -98.65843 34794 ft 496 kts 193°
2026-05-01 12:45 21.67343 -98.67086 34800 ft 496 kts 193°
2026-05-01 12:46 21.60518 -98.68332 34802 ft 496 kts 193°
2026-05-01 12:46 21.53747 -98.69567 34804 ft 497 kts 192°
2026-05-01 12:47 21.46898 -98.70816 34806 ft 497 kts 192°
2026-05-01 12:47 21.40068 -98.72059 34811 ft 498 kts 193°
2026-05-01 12:48 21.33242 -98.73302 34807 ft 497 kts 193°
2026-05-01 12:48 21.26420 -98.74540 34817 ft 497 kts 192°
2026-05-01 12:49 21.19645 -98.75769 34818 ft 497 kts 193°
2026-05-01 12:49 21.12824 -98.77005 34834 ft 497 kts 193°
2026-05-01 12:50 21.06005 -98.78240 34832 ft 497 kts 193°
2026-05-01 12:50 20.99194 -98.79474 34863 ft 497 kts 192°
2026-05-01 12:51 20.92384 -98.80705 34858 ft 497 kts 193°
2026-05-01 12:52 20.82213 -98.82542 34877 ft 497 kts 192°
2026-05-01 12:52 20.71967 -98.84391 34890 ft 497 kts 192°
2026-05-01 12:53 20.61728 -98.86235 34897 ft 497 kts 192°
2026-05-01 12:54 20.54967 -98.87452 34894 ft 497 kts 192°
2026-05-01 12:54 20.48865 -98.88548 34904 ft 497 kts 192°
2026-05-01 12:55 20.38645 -98.90384 34904 ft 497 kts 192°
2026-05-01 12:56 20.31833 -98.91606 34919 ft 497 kts 192°
2026-05-01 12:56 20.25022 -98.92827 34922 ft 497 kts 192°
2026-05-01 12:57 20.18201 -98.94049 34934 ft 497 kts 191°
2026-05-01 12:57 20.07999 -98.95873 34969 ft 497 kts 191°
2026-05-01 12:58 20.01204 -98.97087 35039 ft 497 kts 191°
2026-05-01 12:59 19.95851 -98.98043 35108 ft 497 kts 191°
2026-05-01 12:59 19.85630 -98.99865 35216 ft 498 kts 191°
2026-05-01 13:00 19.75354 -99.01696 35237 ft 500 kts 191°
2026-05-01 13:01 19.68483 -99.02918 35084 ft 499 kts 191°
2026-05-01 13:01 19.65081 -99.03523 35119 ft 499 kts 191°
2026-05-01 13:02 19.54835 -99.05343 35229 ft 499 kts 191°
2026-05-01 13:07 18.92684 -98.67357 34970 ft 506 kts 144°
2026-05-01 13:07 18.89856 -98.65145 34948 ft 506 kts 144°
2026-05-01 13:08 18.84192 -98.60718 34953 ft 506 kts 144°
2026-05-01 13:08 18.78555 -98.56314 34933 ft 506 kts 144°
2026-05-01 13:09 18.72912 -98.51911 34924 ft 506 kts 144°
2026-05-01 13:09 18.67246 -98.47493 34934 ft 506 kts 144°
2026-05-01 13:10 18.61585 -98.43083 34913 ft 506 kts 144°
2026-05-01 13:10 18.55927 -98.38679 34913 ft 505 kts 144°
2026-05-01 13:11 18.50281 -98.34288 34928 ft 504 kts 144°
2026-05-01 13:11 18.44649 -98.29912 34916 ft 503 kts 144°
2026-05-01 13:12 18.39040 -98.25556 34914 ft 503 kts 144°
2026-05-01 13:12 18.33402 -98.21182 34914 ft 503 kts 144°
2026-05-01 13:13 18.27763 -98.16811 34921 ft 503 kts 144°
2026-05-01 13:13 18.22121 -98.12442 34939 ft 504 kts 144°
2026-05-01 13:14 18.16471 -98.08069 34923 ft 504 kts 144°
2026-05-01 13:14 18.10862 -98.03733 34954 ft 503 kts 144°
2026-05-01 13:15 18.05218 -97.99372 34939 ft 504 kts 144°
2026-05-01 13:15 17.99554 -97.95000 34947 ft 504 kts 144°
2026-05-01 13:16 17.93891 -97.90632 34962 ft 505 kts 144°
2026-05-01 13:16 17.88233 -97.86271 34975 ft 504 kts 144°
2026-05-01 13:17 17.76903 -97.77549 34970 ft 505 kts 144°
2026-05-01 13:18 17.68426 -97.71033 34998 ft 505 kts 144°
2026-05-01 13:18 17.62747 -97.66673 34997 ft 505 kts 144°
2026-05-01 13:19 17.57077 -97.62322 35024 ft 504 kts 143°
2026-05-01 13:20 17.48651 -97.55862 35016 ft 502 kts 144°
2026-05-01 13:20 17.43011 -97.51543 35043 ft 502 kts 144°
2026-05-01 13:21 17.34552 -97.45071 35039 ft 502 kts 144°
2026-05-01 13:21 17.28904 -97.40754 35034 ft 502 kts 144°
2026-05-01 13:22 17.23262 -97.36446 35045 ft 502 kts 143°
2026-05-01 13:22 17.17623 -97.32143 35029 ft 501 kts 143°
2026-05-01 13:23 17.11999 -97.27854 35045 ft 501 kts 143°
2026-05-01 13:23 17.06357 -97.23556 35032 ft 501 kts 143°
2026-05-01 13:24 17.00751 -97.19287 35044 ft 501 kts 144°
2026-05-01 13:25 16.92302 -97.12860 35033 ft 501 kts 143°
2026-05-01 13:25 16.87618 -97.09301 35052 ft 500 kts 143°
2026-05-01 13:26 16.81079 -97.04335 35028 ft 499 kts 143°
2026-05-01 13:26 16.76364 -97.00757 35023 ft 499 kts 143°
2026-05-01 13:27 16.70741 -96.96493 35047 ft 499 kts 143°
2026-05-01 13:27 16.62310 -96.90105 35026 ft 499 kts 143°
2026-05-01 13:28 16.53929 -96.83763 35031 ft 497 kts 143°
2026-05-01 13:29 16.42730 -96.75300 35040 ft 496 kts 143°
2026-05-01 13:31 16.26006 -96.62681 35018 ft 496 kts 143°
2026-05-01 13:32 16.12030 -96.52158 35002 ft 495 kts 143°
2026-05-01 13:33 15.98070 -96.41666 34957 ft 496 kts 143°
2026-05-01 13:34 15.86916 -96.33296 34895 ft 497 kts 143°
2026-05-01 13:35 15.79061 -96.26317 34887 ft 495 kts 127°
2026-05-01 13:35 15.75698 -96.20138 34901 ft 493 kts 110°
2026-05-01 13:36 15.74539 -96.16794 34887 ft 493 kts 108°
2026-05-01 13:36 15.71464 -96.06620 34903 ft 494 kts 107°
2026-05-01 13:37 15.69450 -95.99855 34893 ft 493 kts 107°
2026-05-01 13:37 15.67384 -95.93052 34874 ft 493 kts 106°
2026-05-01 13:38 15.64261 -95.82879 34885 ft 493 kts 107°
2026-05-01 13:39 15.62174 -95.76095 34886 ft 493 kts 106°
2026-05-01 13:39 15.60089 -95.69323 34888 ft 493 kts 107°
2026-05-01 13:40 15.58014 -95.62587 34868 ft 492 kts 107°
2026-05-01 13:40 15.55932 -95.55837 34878 ft 492 kts 107°
2026-05-01 13:41 15.53853 -95.49103 34869 ft 491 kts 107°
2026-05-01 13:41 15.51773 -95.42376 34871 ft 490 kts 107°
2026-05-01 13:42 15.49693 -95.35656 34883 ft 490 kts 107°
2026-05-01 13:42 15.47611 -95.28936 34875 ft 490 kts 107°
2026-05-01 13:43 15.45523 -95.22205 34892 ft 490 kts 107°
2026-05-01 13:43 15.43440 -95.15499 34882 ft 490 kts 107°
2026-05-01 13:44 15.41348 -95.08773 34897 ft 490 kts 107°
2026-05-01 13:44 15.39254 -95.02050 34898 ft 490 kts 107°
2026-05-01 13:45 15.37159 -94.95327 34885 ft 490 kts 107°
2026-05-01 13:45 15.35071 -94.88636 34901 ft 490 kts 107°
2026-05-01 13:46 15.32972 -94.81919 34886 ft 491 kts 107°
2026-05-01 13:46 15.30860 -94.75168 34900 ft 491 kts 107°
2026-05-01 13:47 15.28754 -94.68442 34899 ft 491 kts 107°
2026-05-01 13:47 15.26649 -94.61727 34901 ft 491 kts 107°
2026-05-01 13:48 15.24538 -94.55003 34898 ft 491 kts 107°
2026-05-01 13:48 15.22443 -94.48336 34888 ft 489 kts 107°
2026-05-01 13:49 15.20337 -94.41644 34904 ft 488 kts 107°
2026-05-01 13:49 15.18233 -94.34961 34890 ft 488 kts 107°
2026-05-01 13:50 15.16123 -94.28270 34905 ft 488 kts 107°
2026-05-01 13:50 15.14014 -94.21589 34895 ft 488 kts 107°
2026-05-01 13:51 15.11904 -94.14911 34907 ft 487 kts 107°
2026-05-01 13:51 15.09808 -94.08290 34899 ft 487 kts 107°
2026-05-01 13:52 15.07699 -94.01629 34897 ft 487 kts 107°
2026-05-01 13:52 15.05584 -93.94959 34908 ft 487 kts 107°
2026-05-01 13:53 15.03474 -93.88313 34892 ft 487 kts 107°
2026-05-01 13:53 15.00298 -93.78323 34908 ft 487 kts 107°
2026-05-01 13:54 14.98178 -93.71663 34910 ft 487 kts 107°
2026-05-01 13:54 14.96069 -93.65046 34911 ft 487 kts 107°
2026-05-01 13:55 14.93944 -93.58385 34896 ft 487 kts 107°
2026-05-01 13:55 14.91818 -93.51728 34911 ft 487 kts 107°
2026-05-01 13:56 14.89690 -93.45072 34906 ft 487 kts 107°
2026-05-01 13:56 14.87564 -93.38432 34904 ft 486 kts 107°
2026-05-01 13:57 14.85798 -93.32921 34908 ft 485 kts 107°
2026-05-01 13:57 14.83329 -93.25222 34907 ft 485 kts 107°
2026-05-01 13:58 14.81200 -93.18592 34908 ft 485 kts 107°
2026-05-01 13:58 14.79069 -93.11964 34910 ft 485 kts 107°
2026-05-01 13:59 14.76943 -93.05359 34909 ft 485 kts 107°
2026-05-01 13:59 14.74823 -92.98778 34909 ft 485 kts 107°
2026-05-01 14:00 14.72691 -92.92168 34910 ft 485 kts 107°
2026-05-01 14:00 14.70558 -92.85560 34906 ft 485 kts 107°
2026-05-01 14:01 14.68422 -92.78954 34921 ft 485 kts 108°
2026-05-01 14:01 14.66284 -92.72344 34920 ft 485 kts 108°
2026-05-01 14:02 14.64146 -92.65747 34935 ft 485 kts 108°
2026-05-01 14:02 14.62004 -92.59140 34930 ft 485 kts 108°
2026-05-01 14:03 14.59871 -92.52568 34936 ft 485 kts 108°
2026-05-01 14:03 14.57722 -92.45954 34930 ft 485 kts 108°
2026-05-01 14:04 14.55574 -92.39353 34934 ft 485 kts 108°
2026-05-01 14:04 14.53782 -92.33850 34937 ft 485 kts 108°
2026-05-01 14:05 14.51284 -92.26183 34942 ft 485 kts 108°
2026-05-01 14:05 14.49127 -92.19575 34916 ft 486 kts 108°
2026-05-01 14:06 14.46967 -92.12964 34920 ft 486 kts 108°
2026-05-01 14:06 14.44806 -92.06354 34904 ft 486 kts 108°
2026-05-01 14:07 14.42653 -91.99779 34917 ft 486 kts 108°
2026-05-01 14:08 14.39407 -91.89874 34913 ft 486 kts 108°
2026-05-01 14:08 14.37237 -91.83261 34931 ft 485 kts 108°
2026-05-01 14:09 14.35080 -91.76697 34912 ft 485 kts 108°
2026-05-01 14:09 14.32911 -91.70102 34924 ft 485 kts 108°
2026-05-01 14:10 14.30737 -91.63498 34905 ft 485 kts 108°
2026-05-01 14:10 14.28575 -91.56939 34913 ft 485 kts 108°
2026-05-01 14:11 14.26397 -91.50336 34910 ft 485 kts 108°
2026-05-01 14:11 14.23146 -91.40494 34906 ft 485 kts 108°
2026-05-01 14:12 14.20957 -91.33876 34917 ft 484 kts 108°
2026-05-01 14:12 14.18798 -91.27356 34900 ft 483 kts 108°
2026-05-01 14:13 14.16978 -91.21865 34932 ft 482 kts 108°
2026-05-01 14:13 14.14819 -91.15356 34944 ft 482 kts 108°
2026-05-01 14:14 14.12647 -91.08813 34932 ft 481 kts 108°
2026-05-01 14:14 14.10481 -91.02298 34955 ft 480 kts 108°
2026-05-01 14:15 14.08316 -90.95788 34972 ft 480 kts 108°
2026-05-01 14:15 14.06151 -90.89289 34865 ft 480 kts 108°
2026-05-01 14:16 14.03982 -90.82781 34870 ft 480 kts 108°
2026-05-01 14:16 14.01810 -90.76272 34861 ft 480 kts 108°
2026-05-01 14:17 13.99651 -90.69808 34883 ft 480 kts 108°
2026-05-01 14:17 13.97472 -90.63292 34897 ft 480 kts 108°
2026-05-01 14:18 13.95295 -90.56788 34944 ft 480 kts 108°
2026-05-01 14:18 13.93487 -90.51388 34967 ft 480 kts 108°
2026-05-01 14:19 13.90935 -90.43779 34958 ft 480 kts 108°
2026-05-01 14:19 13.88775 -90.37342 34957 ft 480 kts 108°
2026-05-01 14:20 13.85492 -90.27573 34956 ft 482 kts 109°
2026-05-01 14:21 13.83294 -90.21042 34957 ft 486 kts 109°
2026-05-01 14:21 13.81078 -90.14462 34962 ft 487 kts 109°
2026-05-01 14:22 13.77746 -90.04582 34953 ft 487 kts 109°
2026-05-01 14:22 13.75536 -89.98034 34946 ft 487 kts 109°
2026-05-01 14:23 13.73306 -89.91437 34944 ft 489 kts 109°
2026-05-01 14:23 13.71069 -89.84825 34960 ft 489 kts 109°
2026-05-01 14:24 13.68830 -89.78213 34956 ft 489 kts 109°
2026-05-01 14:24 13.66590 -89.71604 34954 ft 489 kts 109°
2026-05-01 14:25 13.64348 -89.64996 34964 ft 489 kts 109°
2026-05-01 14:25 13.62104 -89.58388 34927 ft 489 kts 109°
2026-05-01 14:26 13.58735 -89.48479 34915 ft 490 kts 109°
2026-05-01 14:27 13.56499 -89.41914 34949 ft 490 kts 109°
2026-05-01 14:27 13.54248 -89.35307 34962 ft 490 kts 109°
2026-05-01 14:28 13.50870 -89.25404 34984 ft 489 kts 109°
2026-05-01 14:28 13.48613 -89.18795 34970 ft 491 kts 110°
2026-05-01 14:29 13.46332 -89.12125 34957 ft 495 kts 110°
2026-05-01 14:30 13.41955 -89.02577 34887 ft 493 kts 124°
2026-05-01 14:30 13.40034 -88.99647 34887 ft 494 kts 125°
2026-05-01 14:31 13.34046 -88.91029 34879 ft 494 kts 126°
2026-05-01 14:31 13.30057 -88.85342 34878 ft 494 kts 126°
2026-05-01 14:32 13.26050 -88.79597 34875 ft 495 kts 126°
2026-05-01 14:32 13.22041 -88.73834 34886 ft 496 kts 126°
2026-05-01 14:33 13.18032 -88.68070 34889 ft 496 kts 126°
2026-05-01 14:33 13.14014 -88.62300 34893 ft 496 kts 126°
2026-05-01 14:34 13.10022 -88.56572 34890 ft 498 kts 127°
2026-05-01 14:34 13.05982 -88.50778 34893 ft 500 kts 127°
2026-05-01 14:35 13.01934 -88.44977 34902 ft 500 kts 127°
2026-05-01 14:35 12.97887 -88.39179 34904 ft 501 kts 127°
2026-05-01 14:36 12.93822 -88.33361 34901 ft 501 kts 127°
2026-05-01 14:36 12.89764 -88.27557 34905 ft 501 kts 127°
2026-05-01 14:37 12.85722 -88.21778 34901 ft 501 kts 127°
2026-05-01 14:37 12.81640 -88.15946 34902 ft 501 kts 127°
2026-05-01 14:38 12.77603 -88.10183 34900 ft 501 kts 127°
2026-05-01 14:38 12.73528 -88.04368 34906 ft 502 kts 127°
2026-05-01 14:39 12.69441 -87.98540 34902 ft 503 kts 127°
2026-05-01 14:39 12.65363 -87.92730 34904 ft 503 kts 127°
2026-05-01 14:40 12.61277 -87.86912 34903 ft 503 kts 127°
2026-05-01 14:40 12.57217 -87.81134 34900 ft 503 kts 127°
2026-05-01 14:41 12.53136 -87.75329 34900 ft 503 kts 127°
2026-05-01 14:41 12.49041 -87.69508 34898 ft 503 kts 127°
2026-05-01 14:42 12.44957 -87.63707 34897 ft 503 kts 127°
2026-05-01 14:42 12.40865 -87.57898 34899 ft 503 kts 127°
2026-05-01 14:43 12.36766 -87.52081 34896 ft 503 kts 127°
2026-05-01 14:43 12.32673 -87.46279 34900 ft 503 kts 127°
2026-05-01 14:44 12.28608 -87.40518 34902 ft 503 kts 127°
2026-05-01 14:44 12.22463 -87.31817 34896 ft 503 kts 127°
2026-05-01 14:45 12.16336 -87.23149 34901 ft 503 kts 127°
2026-05-01 14:46 12.12212 -87.17319 34900 ft 503 kts 127°
2026-05-01 14:46 12.06094 -87.08678 34900 ft 502 kts 127°
2026-05-01 14:47 12.01995 -87.02891 34898 ft 502 kts 127°
2026-05-01 14:48 11.95861 -86.94238 34888 ft 501 kts 127°
2026-05-01 14:48 11.89730 -86.85599 34895 ft 501 kts 127°
2026-05-01 14:49 11.81565 -86.74105 34894 ft 501 kts 127°
2026-05-01 14:50 11.73369 -86.62580 34892 ft 501 kts 127°
2026-05-01 14:51 11.67250 -86.53983 34889 ft 501 kts 128°
2026-05-01 14:52 11.61120 -86.45380 34890 ft 498 kts 128°
2026-05-01 14:53 11.55019 -86.36825 34891 ft 497 kts 127°
2026-05-01 14:53 11.50950 -86.31123 34884 ft 497 kts 128°
2026-05-01 14:54 11.46884 -86.25428 34882 ft 496 kts 128°
2026-05-01 14:54 11.42846 -86.19777 34889 ft 496 kts 128°
2026-05-01 14:55 11.38779 -86.14087 34884 ft 496 kts 128°
2026-05-01 14:55 11.34709 -86.08397 34886 ft 496 kts 128°
2026-05-01 14:56 11.30639 -86.02708 34886 ft 496 kts 127°
2026-05-01 14:56 11.26569 -85.97024 34886 ft 496 kts 128°
2026-05-01 14:57 11.22504 -85.91351 34891 ft 495 kts 127°
2026-05-01 14:57 11.16419 -85.82862 34892 ft 495 kts 128°
2026-05-01 14:58 11.12350 -85.77190 34892 ft 496 kts 128°
2026-05-01 14:58 11.08283 -85.71522 34899 ft 495 kts 128°
2026-05-01 14:59 11.04236 -85.65887 34898 ft 495 kts 128°
2026-05-01 14:59 11.00169 -85.60227 34898 ft 495 kts 128°
2026-05-01 15:00 10.94744 -85.52681 34908 ft 496 kts 128°
2026-05-01 15:01 10.90662 -85.47007 34904 ft 495 kts 128°
2026-05-01 15:01 10.86590 -85.41349 34906 ft 495 kts 129°
2026-05-01 15:02 10.82526 -85.35706 34906 ft 494 kts 128°
2026-05-01 15:02 10.79150 -85.31020 34914 ft 495 kts 129°
2026-05-01 15:03 10.74418 -85.24457 34922 ft 495 kts 128°
2026-05-01 15:03 10.70344 -85.18808 34921 ft 495 kts 129°
2026-05-01 15:04 10.66269 -85.13161 34915 ft 495 kts 129°
2026-05-01 15:04 10.62201 -85.07527 34929 ft 494 kts 129°
2026-05-01 15:05 10.58133 -85.01899 34929 ft 495 kts 128°
2026-05-01 15:05 10.54035 -84.96229 34932 ft 497 kts 128°
2026-05-01 15:06 10.49937 -84.90562 34930 ft 497 kts 128°
2026-05-01 15:06 10.45859 -84.84925 34930 ft 497 kts 128°
2026-05-01 15:07 10.41761 -84.79263 34936 ft 497 kts 128°
2026-05-01 15:07 10.37656 -84.73594 34933 ft 497 kts 128°
2026-05-01 15:08 10.33553 -84.67931 34935 ft 498 kts 129°
2026-05-01 15:08 10.29444 -84.62265 34944 ft 498 kts 128°
2026-05-01 15:09 10.25326 -84.56589 34946 ft 499 kts 128°
2026-05-01 15:09 10.21208 -84.50914 34952 ft 499 kts 128°
2026-05-01 15:10 10.17117 -84.45280 34955 ft 499 kts 128°
2026-05-01 15:10 10.10932 -84.36766 35010 ft 501 kts 128°
2026-05-01 15:11 10.04720 -84.28223 35045 ft 501 kts 128°
2026-05-01 15:12 10.00169 -84.22882 35043 ft 498 kts 141°
2026-05-01 15:12 9.94384 -84.19143 35046 ft 493 kts 158°
2026-05-01 15:12 9.91206 -84.17822 35064 ft 493 kts 160°
2026-05-01 15:14 9.75082 -84.12022 34967 ft 493 kts 162°
2026-05-01 15:14 9.65368 -84.08513 34966 ft 494 kts 162°
2026-05-01 15:15 9.52462 -84.03818 34977 ft 494 kts 162°
2026-05-01 15:16 9.39535 -83.99125 34949 ft 494 kts 162°
2026-05-01 15:18 9.26607 -83.94432 34914 ft 493 kts 162°